Regional Weather Roundup
Issued by NWS

Home | Current Version | Previous Version | Graphics & Text | Print | Product List | Glossary On
Versions: 1 2 3 4 5 6 7 8 9 10 11 12 13 14 15 16 17 18 19 20 21 22 23 24 25 26 27 28 29 30 31 32 33 34 35 36 37 38 39 40 41 42 43 44 45 46 47 48 49 50
000
ASUS43 KIND 260859
RWRIN

WEATHER ROUNDUP FOR INDIANA
NATIONAL WEATHER SERVICE INDIANAPOLIS IN
500 AM EDT MON JUN 26 2017

NOTE: "FAIR" INDICATES FEW OR NO CLOUDS BELOW 12,000 FEET WITH NO
SIGNIFICANT WEATHER AND/OR OBSTRUCTIONS TO VISIBILITY.

* - STATION DOES NOT REPORT WEATHER SUCH AS PRECIPITATION OR FOG.

+ - STATION NOT QUALITY CONTROLLED BY THE NATIONAL WEATHER SERVICE.
    USE DATA WITH CAUTION...ESPECIALLY DEWPOINT AND RELATIVE
    HUMIDITY OBSERVATIONS.

INZ001>003-010>013-019-020-261000-
NORTHWEST INDIANA

CITY           SKY/WX    TMP DP  RH WIND       PRES   REMARKS
GARY /AIRPORT/ CLEAR     56  49  79 SW3       30.11S
KNOX *+        PTCLDY    52  43  71 W5        30.10S
MONTICELLO +   CLEAR     55  49  79 SW5       30.12S

$$

LMZ046-743>745-261000-
SOUTHERN LAKE MICHIGAN

STATION/POSITION TIME  TEMP    WIND        PRES    WAVE
                       AIR SEA DIR/SP/G            HT
                 (UTC) (F)     (DEG/KT/KT) (MB)    (FT)
BURNS HARBOR     0840   61     240/  8/ 12 1019.6R
MICHIGAN CITY    0830   61     270/ 14/ 15   N/A
5NW MICH CITY    0850   62 66  280/ 10/ 14   N/A     4

$$

INZ004-005-014>016-021>024-261000-
NORTH CENTRAL INDIANA

CITY           SKY/WX    TMP DP  RH WIND       PRES   REMARKS
GOSHEN         CLEAR     53  48  83 W7        30.08R
SOUTH BEND     PTCLDY    54  51  90 W7        30.09S

$$

INZ006>009-017-018-025>027-261000-
NORTHEAST INDIANA

CITY           SKY/WX    TMP DP  RH WIND       PRES   REMARKS
FORT WAYNE     PTCLDY    57  49  74 W7        30.09S
KENDALLVILLE + CLEAR     54  51  92 SW6       30.08S

$$

INZ028-029-035-036-043>045-051>053-261000-
WEST CENTRAL INDIANA

CITY           SKY/WX    TMP DP  RH WIND       PRES   REMARKS
LAFAYETTE      PTCLDY    51  51 100 CALM      30.13S
TERRE HAUTE    CLEAR     54  49  83 CALM      30.17R

$$

INZ030>032-037>040-046>048-054>057-064-065-261000-
CENTRAL INDIANA

CITY           SKY/WX    TMP DP  RH WIND       PRES   REMARKS
GREENWOOD *+   PTCLDY    55  49  79 W3        30.16R
INDIANAPOLIS   CLEAR     54  49  83 SW7       30.15R
-EAGLE CREEK   CLEAR     57  48  72 SW3       30.14R
KOKOMO +       CLEAR     55  50  83 W8        30.13S
MT COMFORT *+  CLEAR     54  48  82 W5        30.14S
SHELBYVILLE    CLEAR     56  49  77 SW5       30.14S

$$

INZ033-034-041-042-049-050-058-059-261000-
EAST CENTRAL INDIANA

CITY           SKY/WX    TMP DP  RH WIND       PRES   REMARKS
MUNCIE         CLEAR     57  49  74 SW5       30.12S
RICHMOND +     CLEAR     52  48  87 W3        30.14R

$$

INZ060-061-067>069-081>083-085>088-261000-
SOUTHWEST INDIANA

CITY           SKY/WX    TMP DP  RH WIND       PRES   REMARKS
EVANSVILLE     CLEAR     57  52  83 CALM      30.18R
HUNTINGBURG *+ CLEAR     55  52  89 CALM      30.17S

$$

INZ062-063-066-070>080-084-089>092-261000-
SOUTH CENTRAL AND SOUTHEAST INDIANA

CITY           SKY/WX    TMP DP  RH WIND       PRES   REMARKS
BLOOMINGTON    CLEAR     51  47  86 CALM      30.16S
MADISON *+     CLEAR     55  52  88 CALM      30.17S
SEYMOUR +      CLEAR    N/A N/A N/A CALM      30.15S

$$





USA.gov is the U.S. government's official web portal to all federal, state and local government web resources and services.